Location: Bishop�s Knoyle
(51.0728°N, 2.1714°W)
Time: 21:18:55
(UTC+00:00)

N. Korean satellite - Pass Details

Date: 02 October 2021
Orbit: 450 x 494 km, 97.3° (Epoch: 28 October)

Event Time Altitude Azimuth Distance (km) Brightness Sun altitude
Rises 04:53:48 0° 22° (NNE) 2,553 10.7 -12.9°
Reaches altitude 10° 04:56:03 10° 33° (NNE) 1,676 9.9 -12.5°
Maximum altitude 04:59:15 29° 96° (E) 922 8.8 -12.1°
Drops below altitude 10° 05:02:27 10° 158° (SSE) 1,682 9.5 -11.6°
Sets 05:04:42 0° 169° (S) 2,563 10.3 -11.2°
